Delavan, Wisconsin, United States (53115)
Lat: 42.63N, Lon: 88.64W
Wx Zone: WIZ070
Local Info
Past Weather Observations for Today

NOTE: This archive is for the closest National Weather Service station to Delavan. Information may differ from the station used for current weather conditions.

Click here for Long-term Archive

Time Weather Temperature Dewpoint Humidity Pressure Winds Precip Visibility
21:15
Overcast
63°F / 17°C 61°F / 16°C 94% 29.98 in
(1015 mb)
Calm - 10SM
20:55
Partly Cloudy
63°F / 17°C 61°F / 16°C 94% 29.98 in
(1015 mb)
Calm - 10SM
20:35
Clear
63°F / 17°C 61°F / 16°C 94% 29.95 in
(1014 mb)
Calm - 10SM
20:15
Clear
64°F / 18°C 61°F / 16°C 88% 29.95 in
(1014 mb)
SE 3.5 mph
(SE 6 kph)
- 10SM
19:50
Partly Cloudy
64°F / 18°C 61°F / 16°C 88% 29.95 in
(1014 mb)
Calm - 10SM
19:35
Mostly Cloudy
64°F / 18°C 61°F / 16°C 88% 29.95 in
(1014 mb)
Calm - 10SM
19:15
Mostly Cloudy
64°F / 18°C 61°F / 16°C 88% 29.95 in
(1014 mb)
ESE 3.5 mph
(ESE 6 kph)
- 10SM
18:55
Mostly Cloudy
64°F / 18°C 61°F / 16°C 88% 29.95 in
(1014 mb)
SE 3.5 mph
(SE 6 kph)
- 10SM
18:35
Overcast
64°F / 18°C 61°F / 16°C 88% 29.95 in
(1014 mb)
ESE 6.9 mph
(ESE 11 kph)
- 10SM
18:15
Overcast
64°F / 18°C 63°F / 17°C 94% 29.98 in
(1015 mb)
E 5.8 mph
(E 9 kph)
- 10SM
17:35
Partly Cloudy
64°F / 18°C 63°F / 17°C 94% 29.98 in
(1015 mb)
SE 10.4 mph
(SE 17 kph)
- 10SM
17:15
Mostly Cloudy
64°F / 18°C 63°F / 17°C 94% 29.98 in
(1015 mb)
SE 8.1 mph
(SE 13 kph)
- 10SM
16:55
Partly Cloudy
64°F / 18°C 63°F / 17°C 94% 30.01 in
(1016 mb)
E 4.6 mph
(E 7 kph)
- 10SM
16:35
Clear
Drizzle
64°F / 18°C 63°F / 17°C 94% 30.01 in
(1016 mb)
E 5.8 mph
(E 9 kph)
- 10SM
16:15
Partly Cloudy
Light Rain
63°F / 17°C 61°F / 16°C 94% 30.01 in
(1016 mb)
Calm - 10SM
15:55
Mostly Cloudy
Light Rain
63°F / 17°C 61°F / 16°C 94% 30.01 in
(1016 mb)
Calm 0.05 in
(1.27 mm)
7SM
15:35
Overcast
Rain
63°F / 17°C 61°F / 16°C 94% 30.04 in
(1017 mb)
Calm 0.01 in
(0.25 mm)
5SM
15:15
Mostly Cloudy
Light Rain
64°F / 18°C 61°F / 16°C 88% 30.04 in
(1017 mb)
Calm - 10SM
14:55
Overcast
Rain
64°F / 18°C 63°F / 17°C 94% 30.04 in
(1017 mb)
Calm 0.01 in
(0.25 mm)
10SM
14:35
Mostly Cloudy
Rain
64°F / 18°C 61°F / 16°C 88% 30.06 in
(1018 mb)
SSW 6.9 mph
(SSW 11 kph)
- 10SM
14:15
Mostly Cloudy
66°F / 19°C 61°F / 16°C 83% 30.04 in
(1017 mb)
WNW 5.8 mph
(WNW 9 kph)
- 10SM
13:55
Partly Cloudy
66°F / 19°C 61°F / 16°C 83% 30.04 in
(1017 mb)
NNW 9.2 mph
(NNW 15 kph)
- 10SM
13:35
Mostly Cloudy
66°F / 19°C 61°F / 16°C 83% 30.04 in
(1017 mb)
NW 15 mph
(NW 24 kph)
- 10SM
13:15
Mostly Cloudy
64°F / 18°C 63°F / 17°C 94% 30.04 in
(1017 mb)
NW 13.8 mph
(NW 22 kph)
- 10SM
12:55
Overcast
Light Rain
64°F / 18°C 61°F / 16°C 88% 30.04 in
(1017 mb)
WNW 12.7 mph
(WNW 20 kph)
- 10SM
12:35
Overcast
73°F / 23°C 52°F / 11°C 47% 30.04 in
(1017 mb)
W 16.1 mph
(W 26 kph)
- 10SM
12:15
Mostly Cloudy
75°F / 24°C 50°F / 10°C 41% 30.01 in
(1016 mb)
ESE 4.6 mph
(ESE 7 kph)
- 10SM
11:55
Partly Cloudy
77°F / 25°C 50°F / 10°C 39% 30.01 in
(1016 mb)
SE 12.7 mph
(SE 20 kph)
- 10SM
11:35
Partly Cloudy
79°F / 26°C 48°F / 9°C 34% 30.01 in
(1016 mb)
SE 11.5 mph
(SE 19 kph)
- 10SM
11:15
Partly Cloudy
77°F / 25°C 48°F / 9°C 36% 30.01 in
(1016 mb)
E 16.1 mph
(E 26 kph)
- 10SM
10:55
Partly Cloudy
75°F / 24°C 48°F / 9°C 39% 30.01 in
(1016 mb)
SE 12.7 mph
(SE 20 kph)
- 10SM
10:35
Partly Cloudy
77°F / 25°C 48°F / 9°C 36% 30.01 in
(1016 mb)
ESE 10.4 mph
(ESE 17 kph)
- 10SM
10:15
Clear
77°F / 25°C 48°F / 9°C 36% 30.01 in
(1016 mb)
SE 12.7 mph
(SE 20 kph)
- 10SM
09:55
Clear
75°F / 24°C 48°F / 9°C 39% 30.01 in
(1016 mb)
SE 11.5 mph
(SE 19 kph)
- 10SM
09:35
Clear
75°F / 24°C 48°F / 9°C 39% 30.01 in
(1016 mb)
SE 10.4 mph
(SE 17 kph)
- 10SM
09:15
Clear
75°F / 24°C 48°F / 9°C 39% 30.01 in
(1016 mb)
ESE 12.7 mph
(ESE 20 kph)
- 10SM
08:55
Clear
73°F / 23°C 50°F / 10°C 44% 30.01 in
(1016 mb)
ESE 10.4 mph
(ESE 17 kph)
- 10SM
08:35
Clear
73°F / 23°C 50°F / 10°C 44% 30.01 in
(1016 mb)
SE 10.4 mph
(SE 17 kph)
- 10SM
08:15
Clear
73°F / 23°C 52°F / 11°C 47% 30.01 in
(1016 mb)
SE 11.5 mph
(SE 19 kph)
- 10SM
07:55
Clear
72°F / 22°C 52°F / 11°C 50% 30.04 in
(1017 mb)
SE 12.7 mph
(SE 20 kph)
- 10SM
07:35
Clear
72°F / 22°C 52°F / 11°C 50% 30.04 in
(1017 mb)
SE 9.2 mph
(SE 15 kph)
- 10SM
07:15
Clear
70°F / 21°C 52°F / 11°C 53% 30.04 in
(1017 mb)
E 10.4 mph
(E 17 kph)
- 10SM
06:55
Clear
70°F / 21°C 54°F / 12°C 57% 30.04 in
(1017 mb)
ESE 9.2 mph
(ESE 15 kph)
- 10SM
06:35
Clear
68°F / 20°C 55°F / 13°C 64% 30.04 in
(1017 mb)
E 3.5 mph
(E 6 kph)
- 10SM
06:15
Clear
64°F / 18°C 55°F / 13°C 73% 30.04 in
(1017 mb)
ENE 3.5 mph
(ENE 6 kph)
- 10SM
05:55
Partly Cloudy
63°F / 17°C 57°F / 14°C 83% 30.04 in
(1017 mb)
Calm - 10SM
05:35
Mostly Cloudy
63°F / 17°C 57°F / 14°C 83% 30.04 in
(1017 mb)
Calm - 10SM
05:15
Mostly Cloudy
61°F / 16°C 57°F / 14°C 88% 30.04 in
(1017 mb)
NNW 3.5 mph
(NNW 6 kph)
- 10SM
04:55
Partly Cloudy
61°F / 16°C 57°F / 14°C 88% 30.04 in
(1017 mb)
N 3.5 mph
(N 6 kph)
- 10SM
04:35
Mostly Cloudy
59°F / 15°C 57°F / 14°C 94% 30.01 in
(1016 mb)
Calm - 10SM
04:15
Mostly Cloudy
61°F / 16°C 57°F / 14°C 88% 30.01 in
(1016 mb)
Calm - 10SM
03:55
Overcast
61°F / 16°C 57°F / 14°C 88% 30.01 in
(1016 mb)
Calm - 10SM
03:35
Overcast
63°F / 17°C 55°F / 13°C 77% 30.01 in
(1016 mb)
Calm - 10SM
03:15
Overcast
63°F / 17°C 57°F / 14°C 83% 30.01 in
(1016 mb)
NNW 3.5 mph
(NNW 6 kph)
- 10SM
02:55
Overcast
61°F / 16°C 57°F / 14°C 88% 30.01 in
(1016 mb)
Calm - 10SM
02:35
Overcast
61°F / 16°C 57°F / 14°C 88% 30.01 in
(1016 mb)
N 3.5 mph
(N 6 kph)
- 10SM
02:15
Overcast
61°F / 16°C 57°F / 14°C 88% 30.01 in
(1016 mb)
Calm - 10SM
01:55
Overcast
61°F / 16°C 57°F / 14°C 88% 30.01 in
(1016 mb)
Calm - 10SM
01:35
Mostly Cloudy
59°F / 15°C 57°F / 14°C 94% 30.01 in
(1016 mb)
Calm - 10SM
01:15
Mostly Cloudy
57°F / 14°C 57°F / 14°C 100% 30.01 in
(1016 mb)
Calm - 10SM
00:55
Partly Cloudy
59°F / 15°C 57°F / 14°C 94% 30.01 in
(1016 mb)
Calm - 10SM
00:35
Clear
59°F / 15°C 57°F / 14°C 94% 30.01 in
(1016 mb)
Calm - 10SM
00:15
Clear
59°F / 15°C 55°F / 13°C 88% 30.01 in
(1016 mb)
Calm - 10SM
Time Weather Temperature Dewpoint Humidity Pressure Winds Precip Visibility


Weather for websites

WeatherForYou.com, LLC is not responsible for any damages or problems caused by this service. Current weather conditions are obtained from the closest station including government and personal stations which may have varying degrees of accuracy. Weather forecasts are derived from the NOAA NDFD. Like all things, this site belongs to Jesus Christ... He just trusts us to maintain it. If you have any questions or comments email webmaster@weatherforyou.com

Copyright © 2016, WeatherForYou.com LLC. All rights reserved.